Flag for Germany Weather past 2 weeks in Dachau, Bavaria, Germany

Now
54 °F

Sunny.


Feels Like: 48 °F
Forecast: 36 / 45 °F
Wind: 23 mph from West

Location: Oberpfaffenhofen

Current Time: Dec 19, 2014 at 12:18:47 PM

Latest Report: Dec 19, 2014 at 11:50 AM


Visibility: 10 mi

Pressure: 30.09 "Hg

Humidity: 63%

Dew point: 41 °F

Location of DachauLocation

Historic Weather in Dachau — Graph

°F

Dachau temperature yesterday

Maximum temperature yesterday: 50 °F (at 11:50 AM)
Minimum temperature yesterday: 45 °F (at 8:50 AM)
Average temperature yesterday: 48 °F

Past Weeks' High & Low Weather Summary

 TemperatureHumidityPressure
High54 °F (Dec 19, 10:50 AM)100% (Dec 5, 6:50 AM)30.36 "Hg (Dec 5, 6:50 AM)
Low25 °F (Dec 10, 8:20 AM)41% (Dec 13, 1:50 PM)29.80 "Hg (Dec 12, 4:50 PM)
Average39 °F82%30.02 "Hg
* Reported Dec 4 10:20 AM — Dec 19 10:50 AM, Dachau, Weather by CustomWeather, © 2014

Note: Actual official high and low records may vary slightly from our data, if they occured in-between our weather recording intervals... More about our weather records

Advertising

Dachau weather history for previous 24 hours

 ConditionsComfort  
Time TempWeatherWind HumidityBarometerVisibility
10:50 AM
Dec 19
54 °FSunny.16 mph67%30.09 "Hg10 mi
10:20 AM52 °FSunny.15 mph72%30.09 "Hg10 mi
9:50 AM50 °FSunny.16 mph76%30.09 "Hg10 mi
9:20 AM50 °FSunny.15 mph71%30.09 "Hg10 mi
8:50 AM48 °FSunny.17 mph76%30.12 "Hg10 mi
8:20 AM48 °FSunny.17 mph76%30.12 "Hg10 mi
7:50 AM48 °FClear.16 mph76%30.12 "Hg10 mi
7:20 AM48 °FPassing clouds.13 mph76%30.12 "HgN/A
6:50 AM48 °FPassing clouds.14 mph76%30.09 "HgN/A
6:50 PM
Dec 18
48 °FLight rain. Partly cloudy.14 mph94%30.07 "Hg4 mi
6:20 PM48 °FLight rain. Partly cloudy.15 mph94%30.07 "Hg3 mi
5:50 PM48 °FSprinkles. Partly cloudy.18 mph87%30.07 "Hg3 mi
4:50 PM48 °FLight rain. Passing clouds.17 mph87%30.07 "Hg4 mi
4:20 PM48 °FLight rain. Partly sunny.16 mph87%30.04 "Hg2 mi
3:50 PM48 °FDrizzle. Overcast.17 mph87%30.04 "Hg4 mi
3:20 PM48 °FLight rain. More clouds than sun.17 mph87%30.04 "Hg2 mi
2:50 PM48 °FLight rain. More clouds than sun.14 mph87%30.04 "Hg2 mi
2:20 PM48 °FDrizzle. More clouds than sun.14 mph87%30.04 "Hg2 mi
1:50 PM48 °FDrizzle. Fog.15 mph87%30.04 "Hg3 mi
1:20 PM48 °FLight rain. Partly sunny.17 mph87%30.04 "HgN/A
12:50 PM50 °FPartly sunny.16 mph76%30.01 "HgN/A
12:20 PM50 °FScattered clouds.15 mph76%30.01 "HgN/A
Weather by CustomWeather, © 2014

See weather overviewHow to use our weather pages